Location: Cambroso
(45.2833°N, 12.0850°E)
Time: 16:38:05
(UTC+00:00)

CREW DRAGON DEMO-1 DEB - Pass Details

Date: 21 January 2021
Orbit: 335 x 339 km, 51.6° (Epoch: 26 February)

Event Time Altitude Azimuth Distance (km) Brightness Sun altitude
Rises 17:45:39 0° 300° (WNW) 2,174 7.5 -17.8°
Reaches altitude 10° 17:47:43 10° 305° (NW) 1,323 6.2 -18.1°
Enters shadow 17:50:13 49° 348° (NNW) 459 3.2 -18.5°
